Weather History for Bonaire, Bonaire

Change the Weather History Date:

Saturday, May 24, 2014

  Actual Average Record
Temperature  
Mean Temperature 83 °F -  
Max Temperature 86 °F 87 °F 95 °F (2005)
Min Temperature 80 °F 81 °F 80 °F (1997)
Cooling Degree Days 18    
Growing Degree Days 33 (Base 50)    
Moisture  
Dew Point 73 °F    
Average Humidity 73    
Maximum Humidity 79    
Minimum Humidity 66    
Precipitation  
Precipitation 0.00 in - - ()
Sea Level Pressure  
Sea Level Pressure 29.95 in    
Wind  
Wind Speed 17 mph ()    
Max Wind Speed 24 mph    
Max Gust Speed -    
Visibility 6.2 miles    
Events      
Averages and records for this station are not official NWS values.
T = Trace of Precipitation, MM = Missing Value Source: Averaged Metar Reports

Daily Weather History Graph

Daily Weather History Graph

Search for Another Location

Airport:

Trip Planner

Search our weather history database for the weather conditions in past years. The results will help you decide how hot, cold, wet, or windy it might be!

Date:

Astronomy

May. 24, 2014 Rise Set
Actual Time 6:07 AM AST 6:52 PM AST
Civil Twilight 5:44 AM AST 7:15 PM AST
Nautical Twilight 5:17 AM AST 7:42 PM AST
Astronomical Twilight 4:50 AM AST 8:09 PM AST
Moon 2:50 AM AST (5/24) 3:24 PM AST (5/24)
Length of Visible Light 13h 30m
Length of Day
12h 44m
Waning Crescent, 18% of the Moon is Illuminated
May 24
Waning Crescent
May 28
New
Jun 5
First Quarter
Jun 13
Full
Jun 19
Last Quarter

Hourly Weather History & Observations

Time (AST) Temp. Heat Index Dew Point Humidity Pressure Visibility Wind Dir Wind Speed Gust Speed Precip Events Conditions
12:00 AM 80.6 °F 85.4 °F 73.4 °F 79% 29.98 in - ENE 17.3 mph - N/A   Unknown
1:00 AM 80.6 °F 85.4 °F 73.4 °F 79% 29.95 in 6.2 mi NE 17.3 mph - N/A   Scattered Clouds
2:00 AM 80.6 °F 85.4 °F 73.4 °F 79% 29.95 in - ENE 17.3 mph - N/A   Unknown
3:00 AM 80.6 °F 84.6 °F 71.6 °F 74% 29.92 in - ENE 19.6 mph - N/A   Unknown
4:00 AM 80.6 °F 84.6 °F 71.6 °F 74% 29.92 in - ENE 19.6 mph - N/A   Unknown
5:00 AM 80.6 °F 84.6 °F 71.6 °F 74% 29.95 in - ENE 17.3 mph - N/A   Unknown
6:00 AM 80.6 °F 84.6 °F 71.6 °F 74% 29.95 in - ENE 19.6 mph - N/A   Unknown
7:00 AM 80.6 °F 85.4 °F 73.4 °F 79% 29.98 in - ENE 18.4 mph - N/A   Unknown
8:00 AM 82.4 °F 87.2 °F 71.6 °F 70% 29.98 in 6.2 mi ENE 21.9 mph - N/A   Scattered Clouds
9:00 AM 84.2 °F 90.9 °F 73.4 °F 70% 29.98 in 6.2 mi ENE 21.9 mph - N/A   Mostly Cloudy
9:55 AM 84.2 °F 90.9 °F 73.4 °F 70% 30.01 in - East 21.9 mph - N/A   Unknown
11:00 AM 86.0 °F 93.4 °F 73.4 °F 66% 30.01 in - East 20.7 mph - N/A   Unknown
12:00 PM 86.0 °F 93.4 °F 73.4 °F 66% 29.98 in 6.2 mi East 19.6 mph - N/A   Mostly Cloudy
1:00 PM 86.0 °F 93.4 °F 73.4 °F 66% 29.95 in 6.2 mi East 21.9 mph - N/A   Scattered Clouds
2:00 PM 86.0 °F 93.4 °F 73.4 °F 66% 29.92 in - East 21.9 mph - N/A   Unknown
3:00 PM 84.2 °F 89.6 °F 71.6 °F 66% 29.89 in - East 24.2 mph - N/A   Unknown
6:00 PM 82.4 °F 88.2 °F 73.4 °F 74% 29.89 in - ENE 18.4 mph - N/A   Unknown
7:00 PM 80.6 °F 85.4 °F 73.4 °F 79% 29.92 in - ENE 18.4 mph - N/A   Unknown
8:00 PM 80.6 °F 85.4 °F 73.4 °F 79% 29.92 in - NE 20.7 mph - N/A   Unknown
10:00 PM 80.6 °F 85.4 °F 73.4 °F 79% 29.92 in - NE 21.9 mph - N/A   Unknown
11:00 PM 80.6 °F 85.4 °F 73.4 °F 79% 29.95 in - NE 20.7 mph - N/A   Unknown